Weather History for Oelwein, IA

Change the Weather History Date:

Sunday, March 17, 2013

  Actual Average Record
Temperature  
Mean Temperature 26 °F -  
Max Temperature 33 °F 41 °F 80 °F (2012)
Min Temperature 19 °F 26 °F 1 °F (1959)
Degree Days  
Heating Degree Days 39    
Moisture  
Dew Point 20 °F    
Average Humidity 73    
Maximum Humidity 80    
Minimum Humidity 63    
Precipitation  
Precipitation 0.00 in - - ()
Sea Level Pressure  
Sea Level Pressure 30.07 in    
Wind  
Wind Speed 14 mph (East)    
Max Wind Speed 22 mph    
Max Gust Speed 28 mph    
Visibility 10 miles    
Events      
Averages and records for this station are not official NWS values.
T = Trace of Precipitation, MM = Missing Value Source: NWS Daily Summary

Daily Weather History Graph

Daily Weather History Graph

Search for Another Location

Airport:

Trip Planner

Search our weather history database for the weather conditions in past years. The results will help you decide how hot, cold, wet, or windy it might be!

Date:

Astronomy

Mar. 17, 2013 Rise Set
Actual Time 7:15 AM CDT 7:16 PM CDT
Civil Twilight 6:47 AM CDT 7:45 PM CDT
Nautical Twilight 6:14 AM CDT 8:18 PM CDT
Astronomical Twilight 5:41 AM CDT 8:51 PM CDT
Moon 10:21 AM CDT (3/17) 12:32 AM CDT (3/17)
Length of Visible Light 12h 57m
Length of Day
12h 01m
Waxing Crescent, 31% of the Moon is Illuminated
Mar 17
Waxing Crescent
Mar 19
First Quarter
Mar 27
Full
Apr 2
Last Quarter
Apr 10
New

Hourly Weather History & Observations

Time (CDT) Temp. Windchill Dew Point Humidity Pressure Visibility Wind Dir Wind Speed Gust Speed Precip Events Conditions
12:15 AM 24.8 °F 14.0 °F 17.6 °F 74% 30.18 in 10.0 mi NNW 11.5 mph 18.4 mph N/A   Clear
12:35 AM 24.8 °F 12.9 °F 17.6 °F 74% 30.18 in 10.0 mi NNW 13.8 mph - N/A   Clear
12:55 AM 24.8 °F 13.4 °F 15.8 °F 69% 30.18 in 10.0 mi NNW 12.7 mph - N/A   Clear
1:15 AM 23.0 °F 12.4 °F 17.6 °F 80% 30.17 in 10.0 mi NNW 10.4 mph - N/A   Clear
1:35 AM 23.0 °F 11.1 °F 15.8 °F 74% 30.16 in 10.0 mi North 12.7 mph - N/A   Clear
1:55 AM 23.0 °F 11.1 °F 15.8 °F 74% 30.17 in 10.0 mi North 12.7 mph - N/A   Clear
2:15 AM 23.0 °F 12.4 °F 15.8 °F 74% 30.17 in 10.0 mi North 10.4 mph - N/A   Clear
2:35 AM 23.0 °F 10.6 °F 15.8 °F 74% 30.17 in 10.0 mi North 13.8 mph 17.3 mph N/A   Clear
2:55 AM 23.0 °F 10.6 °F 14.0 °F 68% 30.17 in 10.0 mi North 13.8 mph - N/A   Clear
3:15 AM 21.2 °F 8.9 °F 14.0 °F 74% 30.17 in 10.0 mi North 12.7 mph - N/A   Clear
3:55 AM 21.2 °F 7.8 °F 14.0 °F 74% 30.15 in 10.0 mi NNE 15.0 mph - N/A   Clear
4:15 AM 21.2 °F 7.3 °F 14.0 °F 74% 30.14 in 10.0 mi North 16.1 mph - N/A   Clear
4:35 AM 21.2 °F 7.8 °F 14.0 °F 74% 30.13 in 10.0 mi NNE 15.0 mph - N/A   Clear
4:55 AM 21.2 °F 8.3 °F 14.0 °F 74% 30.13 in 10.0 mi NNE 13.8 mph - N/A   Clear
5:15 AM 21.2 °F 8.9 °F 14.0 °F 74% 30.13 in 10.0 mi NNE 12.7 mph 17.3 mph N/A   Clear
5:35 AM 21.2 °F 8.9 °F 12.2 °F 68% 30.14 in 10.0 mi NE 12.7 mph 20.7 mph N/A   Clear
5:55 AM 21.2 °F 8.9 °F 12.2 °F 68% 30.14 in 10.0 mi NE 12.7 mph - N/A   Clear
6:15 AM 21.2 °F 8.9 °F 12.2 °F 68% 30.15 in 10.0 mi NE 12.7 mph - N/A   Clear
6:35 AM 19.4 °F 7.2 °F 12.2 °F 74% 30.15 in 10.0 mi NE 11.5 mph - N/A   Clear
6:55 AM 21.2 °F 10.1 °F 14.0 °F 74% 30.16 in 10.0 mi ENE 10.4 mph - N/A   Clear
7:15 AM 21.2 °F 9.5 °F 14.0 °F 74% 30.16 in 10.0 mi ENE 11.5 mph - N/A   Clear
7:35 AM 21.2 °F 9.5 °F 14.0 °F 74% 30.17 in 10.0 mi ENE 11.5 mph - N/A   Clear
8:15 AM 21.2 °F 10.1 °F 12.2 °F 68% 30.17 in 10.0 mi East 10.4 mph - N/A   Clear
8:35 AM 23.0 °F 11.7 °F 12.2 °F 63% 30.18 in 10.0 mi ENE 11.5 mph - N/A   Clear
8:55 AM 23.0 °F 10.6 °F 12.2 °F 63% 30.18 in 10.0 mi East 13.8 mph - N/A   Clear
9:35 AM 24.8 °F 12.9 °F 14.0 °F 64% 30.18 in 10.0 mi East 13.8 mph - N/A   Clear
9:55 AM 24.8 °F 11.9 °F 14.0 °F 64% 30.18 in 10.0 mi ESE 16.1 mph - N/A   Clear
10:15 AM 26.6 °F 14.3 °F 15.8 °F 64% 30.17 in 10.0 mi East 16.1 mph 20.7 mph N/A   Clear
10:35 AM 26.6 °F 14.3 °F 15.8 °F 64% 30.16 in 10.0 mi ESE 16.1 mph - N/A   Clear
10:55 AM 28.4 °F 16.6 °F 17.6 °F 64% 30.17 in 10.0 mi ESE 16.1 mph 19.6 mph N/A   Clear
11:15 AM 28.4 °F 16.2 °F 17.6 °F 64% 30.16 in 10.0 mi East 17.3 mph - N/A   Clear
11:55 AM 28.4 °F 17.5 °F 19.4 °F 69% 30.14 in 10.0 mi East 13.8 mph - N/A   Clear
12:15 PM 30.2 °F 19.3 °F 21.2 °F 69% 30.13 in 10.0 mi ESE 15.0 mph - N/A   Clear
12:55 PM 30.2 °F 18.9 °F 21.2 °F 69% 30.11 in 10.0 mi ESE 16.1 mph 20.7 mph N/A   Clear
1:15 PM 30.2 °F 20.2 °F 21.2 °F 69% 30.10 in 10.0 mi ESE 12.7 mph 21.9 mph N/A   Clear
1:35 PM 32.0 °F 23.0 °F 21.2 °F 64% 30.09 in 10.0 mi ESE 11.5 mph - N/A   Clear
1:55 PM 32.0 °F 21.2 °F 23.0 °F 69% 30.07 in 10.0 mi East 16.1 mph - N/A   Clear
2:15 PM 32.0 °F 21.2 °F 23.0 °F 69% 30.06 in 10.0 mi ESE 16.1 mph 19.6 mph N/A   Clear
2:35 PM 32.0 °F 20.5 °F 23.0 °F 69% 30.04 in 10.0 mi ESE 18.4 mph 21.9 mph N/A   Clear
2:55 PM 32.0 °F 21.2 °F 24.8 °F 75% 30.04 in 10.0 mi ESE 16.1 mph 21.9 mph N/A   Clear
3:15 PM 32.0 °F 20.5 °F 23.0 °F 69% 30.03 in 10.0 mi ESE 18.4 mph - N/A   Clear
3:35 PM 32.0 °F 21.2 °F 24.8 °F 75% 30.02 in 10.0 mi ESE 16.1 mph 21.9 mph N/A   Clear
3:55 PM 32.0 °F 20.8 °F 24.8 °F 75% 30.01 in 10.0 mi ESE 17.3 mph - N/A   Clear
4:15 PM 33.8 °F 21.9 °F 26.6 °F 75% 29.99 in 10.0 mi ESE 21.9 mph - N/A   Clear
4:35 PM 33.8 °F 22.8 °F 24.8 °F 70% 29.98 in 10.0 mi ESE 18.4 mph 26.5 mph N/A   Clear
4:55 PM 33.8 °F 22.8 °F 26.6 °F 75% 29.98 in 10.0 mi ESE 18.4 mph 24.2 mph N/A   Clear
5:15 PM 32.0 °F 19.5 °F 26.6 °F 80% 29.98 in 10.0 mi ESE 21.9 mph 26.5 mph N/A   Clear
5:35 PM 32.0 °F 19.8 °F 26.6 °F 80% 29.97 in 10.0 mi ESE 20.7 mph 25.3 mph N/A   Clear
5:55 PM 32.0 °F 20.1 °F 24.8 °F 75% 29.97 in 10.0 mi ESE 19.6 mph 25.3 mph N/A   Scattered Clouds
6:15 PM 32.0 °F 19.8 °F 26.6 °F 80% 29.97 in 10.0 mi ESE 20.7 mph 27.6 mph N/A   Scattered Clouds
6:35 PM 32.0 °F 19.8 °F 24.8 °F 75% 29.97 in 10.0 mi ESE 20.7 mph 25.3 mph N/A   Scattered Clouds
6:55 PM 32.0 °F 20.8 °F 24.8 °F 75% 29.97 in 10.0 mi ESE 17.3 mph 26.5 mph N/A   Scattered Clouds
7:15 PM 32.0 °F 20.1 °F 26.6 °F 80% 29.96 in 10.0 mi ESE 19.6 mph 23.0 mph N/A   Scattered Clouds
7:35 PM 32.0 °F 21.2 °F 26.6 °F 80% 29.95 in 10.0 mi ESE 16.1 mph 23.0 mph N/A   Mostly Cloudy
7:55 PM 32.0 °F 20.1 °F 26.6 °F 80% 29.94 in 10.0 mi ESE 19.6 mph 26.5 mph N/A   Mostly Cloudy
8:15 PM 32.0 °F 20.5 °F 26.6 °F 80% 29.94 in 10.0 mi ESE 18.4 mph 27.6 mph N/A   Scattered Clouds
8:35 PM 32.0 °F 20.5 °F 26.6 °F 80% 29.93 in 10.0 mi ESE 18.4 mph 25.3 mph N/A   Scattered Clouds
8:55 PM 32.0 °F 22.1 °F 26.6 °F 80% 29.94 in 10.0 mi ESE 13.8 mph 26.5 mph N/A   Scattered Clouds
9:15 PM 32.0 °F 21.2 °F 26.6 °F 80% 29.94 in 10.0 mi ESE 16.1 mph - N/A   Scattered Clouds
9:35 PM 32.0 °F 21.2 °F 26.6 °F 80% 29.93 in 10.0 mi ESE 16.1 mph 20.7 mph N/A   Scattered Clouds
9:55 PM 32.0 °F 21.2 °F 26.6 °F 80% 29.92 in 10.0 mi ESE 16.1 mph - N/A   Clear
10:15 PM 32.0 °F 20.8 °F 26.6 °F 80% 29.92 in 10.0 mi ESE 17.3 mph - N/A   Clear
10:35 PM 32.0 °F 20.8 °F 26.6 °F 80% 29.92 in 10.0 mi ESE 17.3 mph - N/A   Clear
10:55 PM 32.0 °F 21.6 °F 26.6 °F 80% 29.93 in 10.0 mi ESE 15.0 mph 24.2 mph N/A   Clear
11:15 PM 32.0 °F 21.2 °F 26.6 °F 80% 29.92 in 10.0 mi ESE 16.1 mph - N/A   Clear
11:35 PM 32.0 °F 20.5 °F 26.6 °F 80% 29.90 in 10.0 mi ESE 18.4 mph - N/A   Clear
11:55 PM 32.0 °F 21.6 °F 26.6 °F 80% 29.89 in 10.0 mi ESE 15.0 mph - N/A   Clear